Regional Weather Roundup
Issued by NWS New Orleans/Baton Rouge, LA

Home | Current Version | Previous Version | Text Only | Print | Product List | Glossary On
Versions: 1 2 3 4 5 6 7 8 9 10 11 12 13 14 15 16 17 18 19 20 21 22 23 24 25 26 27 28 29 30 31 32 33 34 35 36 37 38 39 40 41 42 43 44 45 46 47 48 49 50
000
ASUS44 KLIX 230010
RWRLIX
NEW ORLEANS REGIONAL WEATHER ROUNDUP
NATIONAL WEATHER SERVICE NEW ORLEANS LA
700 PM CDT FRI AUG 22 2014

NOTE: "FAIR" INDICATES FEW OR NO CLOUDS BELOW 12,000 FEET WITH NO
      SIGNIFICANT WEATHER AND/OR OBSTRUCTIONS TO VISIBILITY.
      SKY/WX - SKY CONDITION AND SIGNIFICANT WEATHER.
      TMP - AIR TEMPERATURE.     DP    - DEWPOINT TEMPERATURE.
      RH  - RELATIVE HUMIDITY.   PRES  - PRESSURE.
      HI  - HEAT INDEX.          WCI   - WIND CHILL INDEX.

*  THESE STATIONS ARE NOT NWS OR FAA STATIONS AND ARE NOT UNDER
   NWS QUALITY CONTROL.

LAZ038-040-048-061>063-065>067-069-230100-
SOUTHEAST LOUISIANA

CITY           SKY/WX    TMP DP  RH WIND       PRES   REMARKS
N.O. AUDUBON     N/A     93  70  46 MISG        N/A  HX  98
6HR MIN TEMP:  92; 6HR MAX TEMP:  96;

N.O. INTL ARPT PTCLDY    89  66  46 W6        30.01S
6HR MIN TEMP:  89; 6HR MAX TEMP:  95;

N.O. LAKEFRONT CLEAR     90  72  55 NW3       30.02S HX  97
6HR MIN TEMP:  87; 6HR MAX TEMP:  91;

N.O. DOWNTOWN*   N/A     93  70  46 S6        30.02R HX  99
6HR MIN TEMP:  90; 6HR MAX TEMP:  97;

SLIDELL        CLEAR     89  74  60 SW3       30.01S HX  98
6HR MIN TEMP:  89; 6HR MAX TEMP:  96;

BATON ROUGE    CLEAR     91  73  55 NW3       30.02S HX  99
6HR MIN TEMP:  90; 6HR MAX TEMP:  95;

BOOTHVILLE     CLEAR     88  72  58 E3        30.03S
6HR MIN TEMP:  88; 6HR MAX TEMP:  92;

BELLE CHASSE   PTCLDY    90  69  50 SE6       30.01S
6HR MIN TEMP:  90; 6HR MAX TEMP:  95;

BOGALUSA*        N/A     92  74  54 CALM      30.02F HX 101
6HR MIN TEMP:  92; 6HR MAX TEMP:  96;

GALLIANO*      NOT AVBL
NEW ROADS*       N/A     89  77  68 CALM      30.02S HX 101
6HR MIN TEMP:  89; 6HR MAX TEMP:  92;

GONZALES*        N/A     88  80  75 CALM      30.01S HX 104
6HR MIN TEMP:  88; 6HR MAX TEMP:  94;

HAMMOND*       CLEAR     93  70  46 S6        30.03R HX  99
HOUMA*         PTCLDY    90  72  55 NE5       30.02S HX  96
PORT FOURCHON* CLEAR     88  75  66 SE8       30.04S HX  97

$$

MSZ070-080>082-230100-
SOUTHERN MISSISSIPPI

CITY           SKY/WX    TMP DP  RH WIND       PRES   REMARKS
MCCOMB         PTCLDY    90  72  55 S3        30.03S HX  97
6HR MIN TEMP:  88; 6HR MAX TEMP:  94;

GULFPORT       CLEAR     89  75  63 SW3       30.00S HX  99
6HR MIN TEMP:  87; 6HR MAX TEMP:  95;

BILOXI         CLEAR     89  74  60 SW10      30.01S HX  97
6HR MIN TEMP:  89; 6HR MAX TEMP:  95;

PASCAGOULA     CLEAR     87  75  67 SW5       30.01S HX  96
6HR MIN TEMP:  87; 6HR MAX TEMP:  96;

STENNIS ARPT*  CLEAR    N/A N/A N/A S7        30.01S

$$

COASTAL OBSERVATIONS
LAKE AND NEARSHORE STATIONS

STATION/POSITION TIME  TEMP    WIND        PRES    WAVE
                       AIR SEA DIR/SP/G            HT/PER
                 (UTC) (F)     (DEG/KT/KT) (MB)    (FT/S)
PASCAGOULA       0000   89     230/  7/  9 1015.8
WAVELAND YACHT   0000   89     210/  4/  7 1015.7
GRAND ISLE       0000   90 90  140/  3/  3 1017.4
SOUTHWEST PASS   0000   91 89  110/  6/  9 1017.3
NEW CANAL        0000   90 88   10/  2/  2 1016.8
SHELL BEACH      0000   89 85  160/  7/  8 1016.4

OFFSHORE STATIONS

STATION/POSITION TIME  TEMP    WIND        PRES    WAVE
                       AIR SEA DIR/SP/G            HT/PER
                 (UTC) (F)     (DEG/KT/KT) (MB)    (FT/S)

$$



USA.gov is the U.S. government's official web portal to all federal, state and local government web resources and services.